FALCON 9 DEB (46801 NORAD) Tracking and Keplerian Element Data
This shows tracking and keplerian element data for the satellite.
Feedback or suggestion? Click here.
Element | Value |
Catalog | 46801 |
Name | FALCON 9 DEB |
Epoch Orbit | 477 |
Epoch Day | 325.35825344 |
Epoch Year | 2020 |
RAAN | 22.9759 |
Inclination | 53.0314 |
Eccentricity | 0.0004675 |
Argument of Perigee | 10.6532 |
Mean Anonmoly | 349.4613 |
Mean Motion | 16.40740864 |
Decay Rate | 0.06536859 |
L1 | 1 46801U 20074BQ 20325.35825344 .06536859 12453-4 43386-3 0 9996 |
L2 | 2 46801 53.0314 22.9759 0004675 10.6532 349.4613 16.40740864 4778 |
Live tracking and technical data element details for FALCON 9 DEB (NORAD 46801). FALCON 9 DEB can be tracked NOW for your location showing map with azimuth and elevation plus other details from your city location.
Track the satellite on the map from your city or location and see movement details for azimuth, elevation, latitude, longitude, range, height, and movement on the map or in text.
IsCatalogInMostPopularTable: catalog: 46801, numindb: 26
Update: records affected: 1
GetName: 46801 FALCON 9 DEB
Hit Count: updated at: Fri, 22 Jan 2021 18:49:06 GMT